DateTimeUTC,F1_A11,F1_S11,BsB_S11,BsG_S11,BsR_S11,BbsB_S11,BbsG_S11,BbsR_S11,BaB_A11,BaG_A11,BaR_A11,Tu_S11,T_S11,Uu_S11,U_S11,P_S11,T1_A11
2021-10-30T19:00:00Z,00000200,21000000,,,,,,,0000.02,0000.15,0000.08,18.2,25.0,,00.0,0646.1,31.1
2021-10-30T19:01:00Z,00000200,21000000,,,,,,,0000.21,-000.32,0000.02,18.2,25.0,,00.0,0646.1,31.1
2021-10-30T19:02:00Z,00000200,21000000,,,,,,,0000.16,0000.41,0000.11,18.1,25.1,,00.0,0646.1,31.0
2021-10-30T19:03:00Z,00000200,61000000,,,,,,,0000.16,-000.02,0000.10,18.1,25.1,,00.0,0646.1,31.0
2021-10-30T19:04:00Z,00000200,41000000,-000.02,0000.33,0000.23,-000.29,0000.19,0000.25,0000.02,0000.57,0000.13,18.1,24.8,,00.0,0646.9,31.0
2021-10-30T19:05:00Z,00000200,01000000,0000.12,0000.46,0000.52,0000.04,-000.01,0000.02,0000.33,-000.03,-000.13,18.1,24.8,,00.0,0646.9,31.0
2021-10-30T19:06:00Z,00000200,01000000,0000.25,0000.13,0000.21,0000.48,-000.03,0000.15,0000.08,0000.28,0000.46,18.1,24.7,,00.0,0646.9,31.0
2021-10-30T19:07:00Z,00000200,01000000,0000.18,0000.53,0000.27,0000.01,-000.23,-000.25,0000.21,0000.28,-000.02,18.1,24.7,,00.0,0646.9,31.0
2021-10-30T19:08:00Z,00000200,01000000,-000.14,0000.33,0000.00,-000.18,-000.08,-000.14,0000.72,0000.19,0000.08,18.2,24.8,,00.0,0646.9,31.1
2021-10-30T19:09:00Z,00000200,01000000,0000.18,0000.53,0000.39,0000.14,0000.04,-000.09,-000.02,0000.48,0000.67,18.2,24.8,,00.0,0646.9,31.1
2021-10-30T19:10:00Z,00000200,01000000,-000.13,0000.31,0000.50,0000.68,0000.27,0000.01,0000.19,-000.07,-000.05,18.2,24.8,,00.0,0646.9,31.0
2021-10-30T19:11:00Z,00000200,01000000,0000.30,0000.91,0000.11,-000.40,0000.17,0000.15,0000.19,0000.39,0000.44,18.2,24.8,,00.0,0646.9,31.0
2021-10-30T19:12:00Z,00000200,01000000,-000.77,0000.20,-000.33,-000.09,-000.14,0000.08,0000.24,-000.43,-000.67,18.1,24.7,,00.0,0646.9,31.0
2021-10-30T19:13:00Z,00000200,01000000,0000.71,0000.32,0000.11,-000.26,0000.47,0000.13,0000.21,0000.44,0000.66,18.0,24.7,,00.0,0646.9,31.0
2021-10-30T19:14:00Z,00000200,01000000,0000.49,0000.51,0000.15,-000.24,0000.07,-000.19,0000.04,0000.19,0000.08,18.0,24.6,,00.0,0646.9,31.0
2021-10-30T19:15:00Z,00000200,01000000,0001.32,0000.36,0000.10,-000.40,0000.01,0000.34,0000.07,-000.03,-000.06,17.9,24.6,,00.0,0646.9,31.0
2021-10-30T19:16:00Z,00000200,01000000,-000.09,0000.25,0000.51,0000.08,0000.23,-000.02,0000.18,-000.01,-000.09,17.8,24.5,,00.0,0647.0,31.0
2021-10-30T19:17:00Z,00000200,01000000,0000.47,0000.25,0000.13,0000.57,0000.02,-000.10,0000.20,0000.06,-000.09,17.8,24.5,,00.0,0646.9,31.0
2021-10-30T19:18:00Z,00000200,01000000,-000.04,0000.41,0000.32,0000.31,0000.13,0000.08,0000.05,0000.35,0000.67,17.7,24.4,,00.0,0646.9,31.0
2021-10-30T19:19:00Z,00000200,01000000,-000.21,0000.56,0000.11,0000.23,0000.16,0000.05,0000.05,-000.09,-000.21,17.7,24.4,,00.0,0646.9,31.0
2021-10-30T19:20:00Z,00000200,01000000,0000.40,0000.32,0000.34,0000.58,0000.07,0000.61,0000.61,0000.18,0000.50,17.6,24.4,,00.0,0646.9,31.0
2021-10-30T19:21:00Z,00000200,01000000,0000.15,0000.43,0000.12,0000.17,0000.03,-000.12,-000.05,0000.41,-000.11,17.7,24.4,,00.0,0646.9,31.0
2021-10-30T19:22:00Z,00000200,01000000,0000.18,0000.71,0000.11,0000.47,-000.06,-000.01,0000.07,0000.06,0000.27,17.7,24.4,,00.0,0646.9,31.0
2021-10-30T19:23:00Z,00000200,01000000,0001.09,0000.67,0000.02,-000.52,0000.25,-000.07,0000.44,0000.34,-000.15,17.8,24.4,,00.0,0646.9,31.0
2021-10-30T19:24:00Z,00000200,01000000,-000.32,0000.34,-000.09,-000.18,-000.06,-000.19,0000.11,0000.24,0000.66,17.8,24.4,,00.0,0646.8,31.0
2021-10-30T19:25:00Z,00000200,01000000,0000.01,0000.51,0000.30,-000.50,0000.33,-000.05,0000.54,0000.07,0000.20,17.9,24.5,,00.0,0646.8,31.0
2021-10-30T19:26:00Z,00000200,01000000,0000.03,0000.24,0000.34,0000.81,0000.24,0000.12,0000.09,0000.21,-000.02,18.0,24.5,,00.0,0646.9,31.0
2021-10-30T19:27:00Z,00000200,01000000,0000.10,0000.20,0000.11,-000.20,0000.02,0000.10,0000.15,0000.67,0000.25,18.0,24.5,,00.0,0646.9,31.0
2021-10-30T19:28:00Z,00000200,01000000,0000.82,0000.05,0000.51,0000.13,-000.10,0000.07,0000.13,0000.17,0000.09,18.1,24.6,,00.0,0646.9,31.1
2021-10-30T19:29:00Z,00000200,01000000,-000.38,0000.31,-000.02,0000.21,0000.22,-000.13,0000.24,0000.03,0000.08,18.1,24.6,,00.0,0646.9,31.1
2021-10-30T19:30:00Z,00000200,01000000,0000.70,0000.63,0000.17,0000.33,-000.05,0000.19,0000.54,0000.14,0000.34,18.1,24.6,,00.0,0646.9,31.1
2021-10-30T19:31:00Z,00000200,01000000,0000.39,0000.39,0000.07,0000.80,0000.24,-000.03,-000.50,0000.05,-000.07,18.1,24.6,,00.0,0646.9,31.0
2021-10-30T19:32:00Z,00000200,01000000,-000.01,0000.12,0000.22,0000.74,-000.16,0000.08,0000.12,-000.41,-000.05,18.0,24.5,,00.0,0646.9,31.0
2021-10-30T19:33:00Z,00000200,01000000,0000.96,0000.40,0000.17,0000.05,0000.02,0000.18,0000.52,0000.66,-000.10,17.9,24.5,,00.0,0646.9,31.0
2021-10-30T19:34:00Z,00000200,01000000,-000.03,0000.24,0000.24,-000.00,0000.03,-000.15,-000.02,0000.08,0000.20,17.9,24.4,,00.0,0647.0,31.0
2021-10-30T19:35:00Z,00000200,01000000,0000.56,0000.29,0000.28,0000.26,0000.24,0000.20,0000.26,0000.16,0000.13,17.9,24.4,,00.0,0647.0,31.0
2021-10-30T19:36:00Z,00000200,01000000,-000.20,0000.64,0000.67,-000.05,-000.00,-000.04,0000.23,0000.26,0000.16,17.9,24.4,,00.0,0646.9,31.0
2021-10-30T19:37:00Z,00000200,01000000,0000.35,0000.19,0000.10,0000.15,0000.10,0000.08,0000.15,-000.02,0000.03,17.9,24.4,,00.0,0647.0,31.0
2021-10-30T19:38:00Z,00000200,01000000,0000.38,0000.42,0000.06,0000.37,0000.29,-000.13,0000.24,0000.36,0000.39,18.0,24.5,,00.0,0647.0,31.0
2021-10-30T19:39:00Z,00000200,01000000,-000.11,0000.30,-000.03,0000.49,0000.34,-000.23,0000.36,0000.43,0000.34,18.0,24.5,,00.0,0647.0,31.0
2021-10-30T19:40:00Z,00000200,01000000,0000.28,0000.35,0000.37,0000.17,-000.06,0000.17,0000.30,0000.10,0000.04,18.1,24.5,,00.0,0647.0,31.0
2021-10-30T19:41:00Z,00000200,01000000,-000.14,0000.40,0000.29,-000.40,0000.25,0000.04,0000.09,0000.19,0000.23,18.2,24.6,,00.0,0647.0,31.0
2021-10-30T19:42:00Z,00000200,01000000,-000.08,0000.12,0000.04,-000.10,0000.38,0000.25,-000.09,0000.20,0000.03,18.2,24.6,,00.0,0647.0,31.1
2021-10-30T19:43:00Z,00000200,01000000,-000.18,0000.31,0000.36,-000.05,-000.06,-000.09,0000.38,0000.29,0000.39,18.3,24.6,,00.0,0647.0,31.1
2021-10-30T19:44:00Z,00000200,01000000,0000.37,0000.38,0000.01,-000.03,0000.03,0000.03,0000.31,0000.02,0000.02,18.3,24.7,,00.0,0647.0,31.1
2021-10-30T19:45:00Z,00000200,01000000,-000.13,0000.67,0000.11,-000.51,0000.19,0000.25,-000.47,0000.14,-000.31,18.3,24.7,,00.0,0647.0,31.1
2021-10-30T19:46:00Z,00000200,01000000,0000.36,0000.15,0000.26,0000.60,0000.01,-000.01,0000.32,-000.02,0000.31,18.3,24.7,,00.0,0647.0,31.1
2021-10-30T19:47:00Z,00000200,01000000,0000.82,0000.42,-000.12,-000.10,0000.49,-000.18,0000.27,0000.21,0000.32,18.2,24.7,,00.0,0647.0,31.0
2021-10-30T19:48:00Z,00000200,01000000,0000.37,0000.38,0000.19,0000.57,-000.14,-000.02,0000.56,0000.10,-000.11,18.1,24.6,,00.0,0647.0,31.0
2021-10-30T19:49:00Z,00000200,01000000,0000.17,0000.69,0000.25,0000.10,0000.16,-000.38,0000.17,-000.05,0000.41,18.1,24.6,,00.0,0646.9,31.0
2021-10-30T19:50:00Z,00000200,01000000,0000.33,0000.47,-000.04,0000.19,0000.06,0000.01,-000.02,0000.40,-000.24,18.0,24.5,,00.0,0646.9,31.0
2021-10-30T19:51:00Z,00000200,01000000,0000.56,0000.23,0000.05,-000.32,0000.25,0000.07,0000.16,-000.07,0000.36,18.1,24.5,,00.0,0646.9,31.0
2021-10-30T19:52:00Z,00000200,01000000,-000.32,0000.30,0000.00,0000.29,0000.08,0000.04,0000.27,0000.43,0000.21,18.1,24.6,,00.0,0646.9,31.0
2021-10-30T19:53:00Z,00000200,01000000,0000.10,0000.30,-000.01,0000.15,0000.13,-000.35,0000.45,0000.36,0000.26,18.1,24.6,,00.0,0646.9,31.0
2021-10-30T19:54:00Z,00000200,01000000,0000.11,0000.45,-000.05,0000.12,-000.02,-000.36,0000.05,0000.17,0000.01,18.2,24.6,,00.0,0646.9,31.0
2021-10-30T19:55:00Z,00000200,01000000,0000.67,0000.50,0000.14,0000.06,0000.05,-000.03,0000.17,0000.41,0000.14,18.3,24.7,,00.0,0646.9,31.1
2021-10-30T19:56:00Z,00000200,01000000,0000.31,0000.20,-000.04,-000.36,0000.32,-000.07,0000.36,0000.01,0000.10,18.3,24.7,,00.0,0646.9,31.1
2021-10-30T19:57:00Z,00000200,41000000,,,,,,,-000.62,-000.19,-000.24,18.4,24.7,,00.0,0646.9,31.1
2021-10-30T19:58:00Z,00000200,61000000,,,,,,,0000.21,0000.10,0000.12,18.2,24.8,,00.0,0646.0,31.1
2021-10-30T19:59:00Z,00000200,21000000,,,,,,,0000.25,0000.07,0000.22,18.2,24.9,,00.0,0646.0,31.1
